Overview Statistics Trail Chart Weather Telemetry Raw packets
 

This is the latest recevied weather packets stored in our database for station/object KC4GS-13. If no packets are shown the sender has not sent any weather packets the latest 10 day(s).

<< 81 82 83 84 85 86 87 >>
Time Temp. Humidity Pressure Rain* Wind** Luminosity Snow
1788027766 30° C 70% 1021.9 hPa 0 mm - 184 W/m² -
1788027466 30.56° C 70% 1022 hPa 0 mm - 186 W/m² -
1788027161 30.56° C 69% 1022 hPa 0 mm - 180 W/m² -
1788026860 30.56° C 69% 1022 hPa 0 mm - 197 W/m² -
1788026556 30.56° C 69% 1021.9 hPa 0 mm - 214 W/m² -
1788026255 30° C 69% 1022.2 hPa 0 mm - 452 W/m² -
1788025951 30° C 69% 1022.2 hPa 0 mm - 385 W/m² -
1788025650 30° C 70% 1022.2 hPa 0 mm - 230 W/m² -
1788025349 30° C 68% 1022.1 hPa 0 mm - 311 W/m² -
1788025045 30° C 67% 1022.3 hPa 0 mm - 256 W/m² -
1788024739 30° C 68% 1022.3 hPa 0 mm - 406 W/m² -
1788024435 30° C 69% 1022.1 hPa 0 mm - 435 W/m² -
1788024135 30° C 68% 1022.1 hPa 0 mm - 360 W/m² -
1788023831 30° C 69% 1022.2 hPa 0 mm - 250 W/m² -
1788023525 30° C 68% 1022.1 hPa 0 mm - 209 W/m² -
1788023220 30° C 68% 1022.2 hPa 0 mm - 217 W/m² -
1788022915 30° C 67% 1022.1 hPa 0 mm - 221 W/m² -
1788022612 30.56° C 68% 1022.4 hPa 0 mm - 201 W/m² -
1788022307 30° C 67% 1022.3 hPa 0 mm - 455 W/m² -
1788022006 30° C 68% 1022.4 hPa 0 mm - 209 W/m² -
1788021701 30° C 68% 1022.5 hPa 0 mm - 238 W/m² -
1788021398 29.44° C 69% 1022.5 hPa 0 mm - 263 W/m² -
1788021094 30° C 69% 1022.4 hPa 0 mm - 244 W/m² -
1788020789 30° C 69% 1022.7 hPa 0 mm - 300 W/m² -
1788020484 30° C 68% 1022.6 hPa 0 mm - 290 W/m² -

* Rain latest hour (hover to see other rain measurements)
** Current wind speed in m/s (hover to see current wind gust speed)